Radiation Dose at Monitoring Post of Fukushima Daini Nuclear Power Station
Date,Time,MP-1(microSv/h),MP-2(microSv/h),MP-3(microSv/h),MP-4(microSv/h),MP-5(microSv/h),MP-6(microSv/h),MP-7(microSv/h),Wind Direction,Wind Velocity(m/s),Rain
2023/03/16,00:00,0.156,0.140,0.219,0.213,0.214,0.124,0.078,south,5.0,No
2023/03/16,00:10,0.154,0.139,0.220,0.214,0.214,0.124,0.079,south,4.8,No
2023/03/16,00:20,0.156,0.140,0.219,0.215,0.214,0.124,0.079,south,4.3,No
2023/03/16,00:30,0.156,0.141,0.220,0.214,0.214,0.124,0.078,south,3.7,No
2023/03/16,00:40,0.156,0.140,0.219,0.215,0.214,0.124,0.079,south-southwest,2.6,No
2023/03/16,00:50,0.154,0.139,0.219,0.213,0.214,0.123,0.079,south-southwest,2.5,No
2023/03/16,01:00,0.154,0.139,0.219,0.214,0.214,0.125,0.078,south-southwest,2.8,No
2023/03/16,01:10,0.156,0.139,0.218,0.215,0.214,0.123,0.079,south-southwest,2.4,No
2023/03/16,01:20,0.156,0.140,0.219,0.215,0.214,0.123,0.078,south,2.3,No
2023/03/16,01:30,0.155,0.139,0.218,0.214,0.215,0.124,0.078,south-southwest,2.7,No
2023/03/16,01:40,0.155,0.140,0.219,0.213,0.214,0.124,0.078,south,2.3,No
2023/03/16,01:50,0.156,0.140,0.218,0.214,0.215,0.124,0.078,south-southwest,3.0,No
2023/03/16,02:00,0.156,0.140,0.219,0.214,0.214,0.125,0.079,south-southwest,2.8,No
2023/03/16,02:10,0.155,0.140,0.219,0.215,0.214,0.123,0.078,south,1.5,No
2023/03/16,02:20,0.155,0.139,0.219,0.213,0.216,0.124,0.079,south-southwest,0.9,No
2023/03/16,02:30,0.156,0.140,0.219,0.215,0.214,0.124,0.079,south-southwest,2.0,No
2023/03/16,02:40,0.156,0.140,0.219,0.214,0.214,0.124,0.079,south,2.1,No
2023/03/16,02:50,0.155,0.139,0.220,0.214,0.213,0.124,0.078,south,1.8,No
2023/03/16,03:00,0.156,0.141,0.219,0.214,0.214,0.124,0.079,south,1.1,No
2023/03/16,03:10,0.156,0.141,0.218,0.215,0.215,0.124,0.078,south-southwest,1.3,No
2023/03/16,03:20,0.156,0.140,0.219,0.214,0.215,0.124,0.078,-,CALM,No
2023/03/16,03:30,0.156,0.140,0.220,0.213,0.213,0.124,0.079,-,CALM,No
2023/03/16,03:40,0.157,0.139,0.220,0.215,0.214,0.124,0.078,northwest,0.6,No
2023/03/16,03:50,0.155,0.140,0.220,0.214,0.215,0.125,0.079,northwest,1.0,No
2023/03/16,04:00,0.156,0.140,0.219,0.214,0.214,0.124,0.079,northeast,0.8,No
2023/03/16,04:10,0.155,0.140,0.220,0.214,0.214,0.124,0.079,north-northeast,0.8,No
2023/03/16,04:20,0.155,0.140,0.219,0.214,0.215,0.124,0.079,north,1.6,No
2023/03/16,04:30,0.156,0.140,0.219,0.215,0.213,0.124,0.078,north,1.7,No
2023/03/16,04:40,0.156,0.139,0.219,0.214,0.214,0.125,0.079,north-northwest,1.3,No
2023/03/16,04:50,0.155,0.140,0.219,0.214,0.214,0.124,0.078,north-northwest,1.1,No
2023/03/16,05:00,0.155,0.140,0.219,0.214,0.214,0.124,0.079,northwest,1.1,No
2023/03/16,05:10,0.155,0.139,0.219,0.215,0.213,0.124,0.079,north-northwest,0.8,No
2023/03/16,05:20,0.155,0.140,0.219,0.213,0.214,0.125,0.079,-,CALM,No
2023/03/16,05:30,0.155,0.140,0.219,0.214,0.215,0.124,0.078,-,CALM,No
2023/03/16,05:40,0.155,0.141,0.218,0.214,0.214,0.124,0.079,northeast,0.7,No
2023/03/16,05:50,0.156,0.139,0.219,0.214,0.214,0.124,0.079,north-northeast,0.9,No
2023/03/16,06:00,0.155,0.139,0.219,0.214,0.214,0.123,0.079,north-northeast,1.1,No
2023/03/16,06:10,0.155,0.139,0.219,0.213,0.215,0.124,0.079,north-northeast,1.2,No
2023/03/16,06:20,0.155,0.139,0.219,0.214,0.214,0.124,0.078,north-northeast,1.5,No
2023/03/16,06:30,0.156,0.140,0.219,0.214,0.214,0.125,0.079,northeast,1.3,No
2023/03/16,06:40,0.156,0.140,0.218,0.214,0.215,0.124,0.078,northeast,0.7,No
2023/03/16,06:50,0.156,0.140,0.219,0.213,0.214,0.124,0.079,northeast,1.3,No
2023/03/16,07:00,0.155,0.139,0.219,0.214,0.214,0.124,0.078,northeast,0.7,No
2023/03/16,07:10,0.155,0.140,0.218,0.213,0.215,0.123,0.078,-,CALM,No
2023/03/16,07:20,0.155,0.140,0.218,0.214,0.216,0.123,0.079,north-northwest,0.8,No
2023/03/16,07:30,0.155,0.139,0.219,0.214,0.214,0.124,0.079,-,CALM,No
2023/03/16,07:40,0.156,0.140,0.219,0.213,0.215,0.124,0.079,-,CALM,No
2023/03/16,07:50,0.155,0.140,0.219,0.214,0.214,0.123,0.078,-,CALM,No
2023/03/16,08:00,0.155,0.139,0.217,0.213,0.214,0.124,0.079,-,CALM,No
2023/03/16,08:10,0.155,0.139,0.220,0.213,0.214,0.124,0.078,-,CALM,No
2023/03/16,08:20,0.155,0.139,0.218,0.213,0.214,0.124,0.078,-,CALM,No
2023/03/16,08:30,0.155,0.140,0.217,0.212,0.214,0.124,0.078,southeast,1.0,No
2023/03/16,08:40,0.155,0.139,0.218,0.212,0.215,0.124,0.078,southeast,2.2,No
2023/03/16,08:50,0.156,0.139,0.217,0.213,0.213,0.124,0.078,southeast,2.6,No
2023/03/16,09:00,0.154,0.139,0.217,0.213,0.215,0.123,0.078,south-southeast,2.6,No
2023/03/16,09:10,0.155,0.139,0.216,0.214,0.213,0.123,0.079,southeast,2.7,No
2023/03/16,09:20,0.155,0.139,0.217,0.213,0.215,0.123,0.077,south-southeast,2.7,No
2023/03/16,09:30,0.155,0.140,0.217,0.213,0.211,0.124,0.079,south-southeast,3.4,No
2023/03/16,09:40,0.154,0.140,0.219,0.213,0.215,0.123,0.078,southeast,3.7,No
2023/03/16,09:50,0.155,0.139,0.217,0.215,0.213,0.124,0.079,southeast,4.4,No
2023/03/16,10:00,0.154,0.140,0.219,0.213,0.215,0.124,0.078,south-southeast,5.8,No
2023/03/16,10:10,0.156,0.139,0.219,0.213,0.213,0.123,0.078,south-southeast,5.2,No
2023/03/16,10:20,0.155,0.139,0.218,0.212,0.214,0.124,0.078,south-southeast,6.4,No
2023/03/16,10:30,0.154,0.137,0.218,0.214,0.214,0.123,0.078,south-southeast,7.1,No
2023/03/16,10:40,0.155,0.139,0.218,0.213,0.213,0.123,0.078,south-southeast,8.1,No
2023/03/16,10:50,0.155,0.138,0.218,0.212,0.215,0.123,0.078,south-southeast,8.8,No
2023/03/16,11:00,-,-,-,-,-,-,-,-,-,-
2023/03/16,11:10,0.155,0.139,0.218,0.213,0.214,0.122,0.078,south-southeast,7.8,No
2023/03/16,11:20,0.154,0.138,0.216,0.214,0.214,0.123,0.077,south-southeast,7.8,No
2023/03/16,11:30,0.154,0.139,0.219,0.213,0.212,0.124,0.078,south-southeast,8.7,No
2023/03/16,11:40,0.155,0.139,0.217,0.212,0.215,0.123,0.077,south-southeast,10.1,No
2023/03/16,11:50,0.154,0.139,0.217,0.214,0.212,0.124,0.078,south-southeast,10.3,No
2023/03/16,12:00,0.153,0.139,0.218,0.212,0.213,0.123,0.077,south-southeast,9.2,No
2023/03/16,12:10,0.155,0.139,0.216,0.215,0.213,0.123,0.078,south-southeast,9.7,No
2023/03/16,12:20,0.155,0.138,0.219,0.212,0.212,0.123,0.078,south-southeast,10.3,No
2023/03/16,12:30,0.154,0.139,0.218,0.214,0.214,0.123,0.077,south-southeast,9.3,No
2023/03/16,12:40,0.155,0.139,0.216,0.214,0.213,0.124,0.077,south-southeast,9.5,No
2023/03/16,12:50,0.154,0.139,0.220,0.213,0.212,0.122,0.077,south-southeast,9.0,No
2023/03/16,13:00,0.154,0.139,0.218,0.214,0.216,0.124,0.078,south-southeast,9.2,No
2023/03/16,13:10,0.154,0.139,0.219,0.213,0.214,0.123,0.077,south-southeast,9.0,No
2023/03/16,13:20,0.155,0.140,0.220,0.213,0.214,0.124,0.076,south-southeast,7.7,No
2023/03/16,13:30,0.154,0.139,0.218,0.213,0.213,0.124,0.078,south-southeast,8.3,No
2023/03/16,13:40,0.154,0.137,0.218,0.214,0.211,0.123,0.077,south-southeast,8.2,No
2023/03/16,13:50,0.157,0.140,0.219,0.215,0.215,0.123,0.077,south-southeast,10.1,No
2023/03/16,14:00,0.154,0.139,0.217,0.213,0.213,0.123,0.078,south-southeast,11.4,No
2023/03/16,14:10,0.155,0.140,0.220,0.215,0.213,0.123,0.077,south-southeast,10.7,No
2023/03/16,14:20,0.154,0.138,0.217,0.214,0.214,0.124,0.078,south-southeast,10.6,No
2023/03/16,14:30,0.153,0.140,0.218,0.215,0.213,0.122,0.077,south-southeast,9.8,No
2023/03/16,14:40,0.155,0.137,0.217,0.214,0.215,0.124,0.078,south-southeast,9.2,No
2023/03/16,14:50,0.155,0.139,0.219,0.215,0.212,0.123,0.077,south-southeast,9.3,No
2023/03/16,15:00,0.155,0.139,0.218,0.214,0.215,0.124,0.077,south-southeast,9.8,No
2023/03/16,15:10,0.155,0.140,0.219,0.214,0.214,0.123,0.077,south-southeast,9.2,No
2023/03/16,15:20,0.153,0.139,0.218,0.214,0.215,0.124,0.078,south-southeast,8.8,No
2023/03/16,15:30,0.156,0.139,0.220,0.214,0.213,0.123,0.077,south,8.3,No
2023/03/16,15:40,0.154,0.139,0.218,0.215,0.214,0.123,0.078,south,7.9,No
2023/03/16,15:50,0.155,0.140,0.219,0.215,0.212,0.124,0.077,south-southeast,9.8,No
2023/03/16,16:00,0.155,0.138,0.218,0.214,0.216,0.123,0.078,south-southeast,10.3,No
2023/03/16,16:10,0.154,0.139,0.220,0.215,0.214,0.124,0.077,south-southeast,8.8,No
2023/03/16,16:20,0.155,0.140,0.218,0.213,0.214,0.122,0.078,south-southeast,9.5,No
2023/03/16,16:30,0.154,0.138,0.219,0.216,0.213,0.124,0.077,south-southeast,10.1,No
2023/03/16,16:40,0.156,0.139,0.219,0.213,0.215,0.123,0.078,south-southeast,10.0,No
2023/03/16,16:50,0.155,0.139,0.219,0.215,0.214,0.124,0.077,south,9.5,No
2023/03/16,17:00,0.155,0.140,0.220,0.213,0.216,0.123,0.078,south,10.1,No
2023/03/16,17:10,0.155,0.139,0.219,0.214,0.214,0.124,0.078,south-southeast,9.5,No
2023/03/16,17:20,0.156,0.139,0.218,0.214,0.214,0.123,0.077,south-southeast,8.4,No
2023/03/16,17:30,0.155,0.140,0.219,0.213,0.213,0.123,0.078,south-southeast,8.1,No
2023/03/16,17:40,0.154,0.138,0.218,0.216,0.215,0.124,0.078,south-southeast,8.3,No
2023/03/16,17:50,0.155,0.139,0.219,0.213,0.214,0.124,0.078,south,6.5,No
2023/03/16,18:00,0.154,0.140,0.218,0.215,0.216,0.122,0.078,south,5.8,No
2023/03/16,18:10,0.157,0.139,0.219,0.213,0.214,0.123,0.078,south,5.5,No
2023/03/16,18:20,0.155,0.140,0.219,0.214,0.215,0.123,0.078,south,5.4,No
2023/03/16,18:30,0.155,0.138,0.218,0.215,0.214,0.123,0.077,south,6.0,No
2023/03/16,18:40,0.155,0.139,0.220,0.214,0.214,0.124,0.078,south-southwest,6.2,No
2023/03/16,18:50,0.156,0.140,0.218,0.215,0.216,0.124,0.079,south-southwest,5.2,No
2023/03/16,19:00,0.154,0.140,0.219,0.213,0.214,0.124,0.078,south-southwest,5.0,No
2023/03/16,19:10,0.155,0.140,0.220,0.215,0.216,0.124,0.078,south-southwest,4.4,No
2023/03/16,19:20,0.155,0.139,0.219,0.215,0.214,0.124,0.078,south-southwest,3.1,No
2023/03/16,19:30,0.154,0.139,0.220,0.213,0.215,0.123,0.078,south-southwest,3.5,No
2023/03/16,19:40,0.156,0.140,0.221,0.215,0.215,0.124,0.078,southwest,3.7,No
2023/03/16,19:50,0.154,0.139,0.219,0.215,0.214,0.124,0.079,southwest,3.6,No
2023/03/16,20:00,0.155,0.140,0.220,0.215,0.216,0.124,0.078,southwest,3.6,No
2023/03/16,20:10,0.155,0.140,0.220,0.215,0.215,0.125,0.078,southwest,3.2,No
2023/03/16,20:20,0.155,0.141,0.219,0.214,0.216,0.124,0.079,southwest,3.2,No
2023/03/16,20:30,0.157,0.140,0.220,0.216,0.214,0.124,0.078,west-southwest,2.5,No
2023/03/16,20:40,0.155,0.140,0.219,0.215,0.214,0.125,0.078,west,3.0,No
2023/03/16,20:50,0.155,0.140,0.219,0.216,0.215,0.124,0.078,west-southwest,2.3,No
2023/03/16,21:00,0.155,0.140,0.220,0.216,0.214,0.124,0.077,west,3.1,No
2023/03/16,21:10,0.154,0.140,0.219,0.214,0.215,0.125,0.078,west,2.6,No
2023/03/16,21:20,0.155,0.140,0.219,0.215,0.214,0.125,0.078,west,3.5,No
2023/03/16,21:30,0.155,0.140,0.219,0.216,0.215,0.124,0.079,west,4.9,No
2023/03/16,21:40,0.156,0.140,0.220,0.214,0.215,0.124,0.078,west,3.3,No
2023/03/16,21:50,0.156,0.140,0.219,0.215,0.215,0.124,0.078,west-northwest,3.0,No
2023/03/16,22:00,0.155,0.139,0.220,0.214,0.215,0.125,0.078,west,2.8,No
2023/03/16,22:10,0.155,0.139,0.220,0.214,0.214,0.124,0.078,west,3.4,No
2023/03/16,22:20,0.156,0.140,0.220,0.214,0.215,0.124,0.078,west-northwest,3.7,No
2023/03/16,22:30,0.155,0.140,0.219,0.214,0.214,0.123,0.078,west,3.4,No
2023/03/16,22:40,0.156,0.140,0.220,0.214,0.215,0.123,0.078,west-northwest,3.6,No
2023/03/16,22:50,0.155,0.140,0.220,0.215,0.215,0.123,0.078,west-northwest,3.0,No
2023/03/16,23:00,0.155,0.139,0.220,0.213,0.214,0.124,0.078,west-northwest,3.0,No
2023/03/16,23:10,0.156,0.140,0.218,0.215,0.215,0.123,0.078,west-northwest,2.0,No
2023/03/16,23:20,0.155,0.139,0.219,0.215,0.214,0.124,0.078,west-northwest,1.4,No
2023/03/16,23:30,0.155,0.139,0.219,0.214,0.215,0.124,0.077,north-northwest,1.3,No
2023/03/16,23:40,0.155,0.139,0.219,0.214,0.216,0.124,0.078,north-northwest,0.8,No
2023/03/16,23:50,0.155,0.140,0.220,0.215,0.215,0.124,0.078,west-northwest,1.1,No
